Flag for U.S.A. Weather past 2 weeks in Cedar Rapids, Iowa, U.S.A.

Now
74 °F

Overcast.


Feels Like: 74 °F
Forecast: 62 / 78 °F
Wind: 10 mph from Southwest

Location: Cedar Rapids Municipal Airport

Current Time: May 29, 2015 at 2:05:15 PM

Latest Report: May 29, 2015 at 12:52 PM


Visibility: 10 mi

Pressure: 29.93 "Hg

Humidity: 79%

Dew point: 67 °F

Location of Cedar RapidsLocation

Historic Weather in Cedar Rapids — Graph

°F

Cedar Rapids temperature yesterday

Maximum temperature yesterday: 80 °F (at 1:52 PM)
Minimum temperature yesterday: 58 °F (at 5:52 AM)
Average temperature yesterday: 70 °F

Past Weeks' High & Low Weather Summary

 TemperatureHumidityPressure
High80 °F (May 16, 1:52 PM)100% (May 14, 4:52 PM)30.33 "Hg (May 14, 4:52 PM)
Low35 °F (May 21, 3:52 AM)24% (May 22, 4:52 PM)29.68 "Hg (May 26, 11:54 AM)
Average62 °F75%30.01 "Hg
* Reported May 14 12:52 PM — May 29 12:52 PM, Cedar Rapids, Weather by CustomWeather, © 2015

Note: Actual official high and low records may vary slightly from our data, if they occured in-between our weather recording intervals... More about our weather records

Advertising

Cedar Rapids weather history for previous 24 hours

 ConditionsComfort  
Time TempWeatherWind HumidityBarometerVisibility
12:52 PM
Fri, May 29
74 °FOvercast.10 mph79%29.93 "Hg10 mi
11:52 AM72 °FOvercast.7 mph84%29.93 "Hg9 mi
10:52 AM72 °FOvercast.8 mph84%29.94 "Hg10 mi
9:52 AM71 °FPassing clouds.7 mph87%29.94 "Hg10 mi
8:52 AM69 °FMore clouds than sun.7 mph87%29.95 "Hg10 mi
7:52 AM67 °FPartly sunny.7 mph90%29.94 "Hg10 mi
6:52 AM65 °FOvercast.5 mph97%29.93 "Hg10 mi
5:52 AM64 °FOvercast.6 mph100%29.93 "Hg10 mi
4:52 AM64 °FOvercast.6 mph97%29.93 "Hg10 mi
3:52 AM64 °FPassing clouds.8 mph97%29.93 "Hg10 mi
2:52 AM65 °FLight rain. Partly cloudy.7 mph94%29.96 "Hg10 mi
1:52 AM65 °FOvercast.7 mph94%29.97 "Hg10 mi
12:52 AM65 °FOvercast.6 mph94%29.97 "Hg10 mi
11:52 PM
Thu, May 28
65 °FOvercast.7 mph94%29.98 "Hg10 mi
10:52 PM66 °FPassing clouds.6 mph90%29.98 "Hg10 mi
9:52 PM67 °FClear.8 mph87%29.98 "Hg10 mi
8:52 PM68 °FPassing clouds.7 mph82%29.98 "Hg10 mi
7:52 PM75 °FPassing clouds.10 mph52%30.00 "Hg10 mi
6:52 PM77 °FPassing clouds.9 mph45%30.02 "Hg10 mi
5:52 PM78 °FSunny.10 mph42%30.03 "Hg10 mi
4:52 PM80 °FSunny.10 mph36%30.02 "Hg10 mi
3:52 PM80 °FSunny.16 mph41%30.05 "Hg10 mi
2:52 PM80 °FSunny.15 mph41%30.07 "Hg10 mi
Weather by CustomWeather, © 2015

See weather overviewHow to use our weather pages